Location: Unspecified
(0.0000°N, 0.0000°E)
Time: 23:02:28
(UTC+00:00)

Envisat - Pass Details

Date: 24 April 2018
Orbit: 764 x 766 km, 98.2° (Epoch: 24 April)

Event Time Altitude Azimuth Distance (km) Brightness Sun altitude
Exits shadow 20:28:54 29° 291° (WNW) 1,384 4.8 -36.6°
Drops below altitude 10° 20:31:58 10° 322° (NW) 2,292 6.0 -37.3°
Sets 20:34:27 0° 331° (NNW) 3,215 6.8 -37.9°
